Simultaneous Nadir Overpasses (SNOs) Predictions

Prediction of SNOs between GOES-17 and NOAA-19 Satellite Orbit:

Table of predicted SNOs for the next 14.0 days since TLE Epoch: 2/4/2023
Index Date Time (GOES-17) GOES-17 Lat,Lon NOAA-19 Lat,Lon Distance(km) Time Diff (sec)
1 02/06/2023 03:44:17 -0.01,-108.11 -0.77,-111.44 379.96 80
2 02/07/2023 03:32:16 -0.02,-106.95 -0.38,-108.46 173.41 80
3 02/08/2023 03:22:55 -0.02,-105.78 0.07,-105.50 33.08 80
4 02/09/2023 03:10:54 -0.02,-104.62 0.47,-102.53 239.61 80
5 02/10/2023 02:58:52 -0.02,-103.46 0.86, -99.55 446.23 80
6 02/12/2023 15:16:22 0.02,-100.55 0.85,-104.24 420.78 80
7 02/13/2023 15:04:21 0.02, -99.38 0.43,-101.27 214.35 80
8 02/14/2023 14:52:19 0.02, -98.22 0.02, -98.29 8.21 80
9 02/15/2023 14:42:58 0.02, -97.05 -0.39, -95.32 198.06 80
10 02/16/2023 14:30:56 0.02, -95.89 -0.81, -92.35 404.33 80
